GPS BIIF-5 (39533 NORAD) Tracking and Keplerian Element Data

This shows tracking and keplerian element data for the satellite.

Feedback or suggestion? Click here.




ElementValue
Catalog39533
NameGPS BIIF-5
Epoch Orbit7738
Epoch Day285.92473272
Epoch Year2024
RAAN174.3147
Inclination53.5993
Eccentricity0.0073141
Argument of Perigee220.9826
Mean Anonmoly138.5352
Mean Motion2.0057507
Decay Rate1.7E-07
L11 39533U 14008A 24285.92473272 .00000017 00000+0 00000+0 0 9999
L22 39533 53.5993 174.3147 0073141 220.9826 138.5352 2.00575070 77389



Live tracking and technical data element details for GPS BIIF-5 (NORAD 39533). GPS BIIF-5 can be tracked NOW for your location showing map with azimuth and elevation plus other details from your city location.







IsCatalogInMostPopularTable: catalog: 39533, numindb: 748
Update: records affected: 1



GetName: 39533 GPS BIIF-5

Hit Count: updated at: Wed, 04 Dec 2024 22:05:51 GMT